Princeton, MN

4:18 PM CST on November 12, 2019 (GMT -0600)
Princeton Municipal

Weather History for KPNM - August, 2019

Change the Weather History Date:

Tuesday, August 13, 2019

  Actual Average Record
Temperature  
Mean Temperature 68 °F -  
Max Temperature 80 °F 76 °F 91 °F (2018)
Min Temperature 57 °F 54 °F 33 °F (2004)
Cooling Degree Days 4    
Growing Degree Days 18 (Base 50)    
Moisture  
Dew Point 60 °F    
Average Humidity 80    
Maximum Humidity 94    
Minimum Humidity 54    
Precipitation  
Precipitation 0.00 in - - ()
Sea Level Pressure  
Sea Level Pressure 29.92 in    
Wind  
Wind Speed 3 mph (NNE)    
Max Wind Speed 10 mph    
Max Gust Speed -    
Visibility 10 miles    
Events Rain , Thunderstorm    
Averages and records for this station are not official NWS values.
T = Trace of Precipitation, MM = Missing Value Source: NWS Daily Summary

Daily Weather History Graph

Daily Weather History Graph

Search for Another Location

Airport or City:

Astronomy

Aug. 13, 2019 Rise Set
Actual Time 6:12 AM CDT 8:25 PM CDT
Civil Twilight 5:39 AM CDT 8:58 PM CDT
Nautical Twilight 4:59 AM CDT 9:38 PM CDT
Astronomical Twilight 4:13 AM CDT 10:23 PM CDT
Moon 7:46 PM CDT (8/13) 4:08 AM CDT (8/13)
Length of Visible Light 15h 18m
Length of Day
14h 13m
Waxing Gibbous, 97% of the Moon is Illuminated
Aug 13
Waxing Gibbous
Aug 15
Full
Aug 23
Last Quarter
Aug 30
New
Sep 5
First Quarter

Hourly Weather History & Observations

Time (CDT) Temp. Heat Index Dew Point Humidity Pressure Visibility Wind Dir Wind Speed Gust Speed Precip Events Conditions
12:16 AM 62.6 °F - 60.8 °F 94% 29.89 in 10.0 mi North 5.8 mph - N/A   Clear
12:35 AM 62.6 °F - 59.0 °F 88% 29.89 in 10.0 mi North 5.8 mph - N/A   Clear
12:39 AM 62.6 °F - 59.0 °F 88% 29.88 in 10.0 mi NNE 4.6 mph - N/A   Clear
12:58 AM 62.6 °F - 59.0 °F 88% 29.89 in 10.0 mi Calm Calm - N/A   Clear
1:16 AM 60.8 °F - 57.2 °F 88% 29.89 in 10.0 mi Calm Calm - N/A   Clear
1:35 AM 60.8 °F - 57.2 °F 88% 29.89 in 10.0 mi North 3.5 mph - N/A   Clear
1:55 AM 60.8 °F - 57.2 °F 88% 29.89 in 10.0 mi North 3.5 mph - N/A   Clear
1:56 AM 60.8 °F - 57.2 °F 88% 29.89 in 10.0 mi North 3.5 mph - N/A   Clear
2:19 AM 59.0 °F - 57.2 °F 94% 29.88 in 10.0 mi Calm Calm - N/A   Clear
2:37 AM 60.8 °F - 57.2 °F 88% 29.89 in 10.0 mi Calm Calm - N/A   Scattered Clouds
2:55 AM 59.0 °F - 57.2 °F 94% 29.89 in 10.0 mi North 3.5 mph - N/A   Scattered Clouds
3:15 AM 59.0 °F - 55.4 °F 88% 29.89 in 10.0 mi Calm Calm - N/A   Clear
3:16 AM 59.0 °F - 55.4 °F 88% 29.89 in 10.0 mi North 3.5 mph - N/A   Clear
3:58 AM 57.2 °F - 55.4 °F 94% 29.89 in 10.0 mi Calm Calm - N/A   Mostly Cloudy
4:16 AM 59.0 °F - 55.4 °F 88% 29.89 in 10.0 mi Calm Calm - N/A   Overcast
4:35 AM 60.8 °F - 55.4 °F 82% 29.89 in 10.0 mi NNE 4.6 mph - N/A   Overcast
4:55 AM 59.0 °F - 55.4 °F 88% 29.90 in 10.0 mi Calm Calm - N/A   Mostly Cloudy
4:56 AM 59.0 °F - 55.4 °F 88% 29.90 in 10.0 mi North 3.5 mph - N/A   Mostly Cloudy
5:19 AM 59.0 °F - 55.4 °F 88% 29.90 in 10.0 mi Calm Calm - N/A   Mostly Cloudy
5:37 AM 59.0 °F - 55.4 °F 88% 29.91 in 10.0 mi NNW 3.5 mph - N/A   Mostly Cloudy
5:55 AM 59.0 °F - 55.4 °F 88% 29.91 in 10.0 mi Calm Calm - N/A   Mostly Cloudy
6:15 AM 59.0 °F - 53.6 °F 82% 29.91 in 10.0 mi NNE 3.5 mph - N/A   Mostly Cloudy
6:35 AM 59.0 °F - 53.6 °F 82% 29.92 in 10.0 mi Calm Calm - N/A   Scattered Clouds
6:58 AM 60.8 °F - 55.4 °F 82% 29.93 in 10.0 mi NNW 4.6 mph - N/A Rain Light Rain
7:16 AM 60.8 °F - 55.4 °F 82% 29.93 in 10.0 mi NNE 3.5 mph - N/A   Overcast
7:35 AM 60.8 °F - 55.4 °F 82% 29.93 in 10.0 mi Calm Calm - N/A   Mostly Cloudy
7:36 AM 60.8 °F - 55.4 °F 82% 29.93 in 10.0 mi North 3.5 mph - N/A   Mostly Cloudy
7:55 AM 60.8 °F - 55.4 °F 82% 29.94 in 10.0 mi North 3.5 mph - N/A   Scattered Clouds
8:19 AM 62.6 °F - 55.4 °F 77% 29.95 in 10.0 mi NNE 4.6 mph - N/A   Clear
8:37 AM 62.6 °F - 55.4 °F 77% 29.95 in 10.0 mi ENE 5.8 mph - N/A   Clear
8:55 AM 62.6 °F - 55.4 °F 77% 29.95 in 10.0 mi ENE 3.5 mph - N/A   Clear
9:15 AM 64.4 °F - 55.4 °F 73% 29.94 in 10.0 mi Calm Calm - N/A   Clear
9:35 AM 66.2 °F - 55.4 °F 68% 29.93 in 10.0 mi Calm Calm - N/A   Clear
9:40 AM 66.2 °F - 57.2 °F 73% 29.93 in 10.0 mi Calm Calm - N/A   Clear
9:58 AM 66.2 °F - 57.2 °F 73% 29.93 in 10.0 mi Calm Calm - N/A   Clear
10:16 AM 68.0 °F - 57.2 °F 68% 29.93 in 10.0 mi Calm Calm - N/A   Clear
10:35 AM 69.8 °F - 57.2 °F 64% 29.93 in 10.0 mi Calm Calm - N/A   Clear
10:56 AM 71.6 °F - 59.0 °F 64% 29.93 in 10.0 mi Calm Calm - N/A   Clear
11:19 AM 73.4 °F - 59.0 °F 61% 29.94 in 10.0 mi ENE 3.5 mph - N/A   Clear
11:37 AM 73.4 °F - 60.8 °F 65% 29.94 in 10.0 mi Calm Calm - N/A   Clear
11:55 AM 75.2 °F - 60.8 °F 61% 29.93 in 10.0 mi Calm Calm - N/A   Clear
12:15 PM 75.2 °F - 60.8 °F 61% 29.93 in 10.0 mi NW 4.6 mph - N/A   Clear
12:35 PM 77.0 °F - 60.8 °F 57% 29.93 in 10.0 mi NW 5.8 mph - N/A   Clear
12:40 PM 77.0 °F - 60.8 °F 57% 29.93 in 10.0 mi WNW 4.6 mph - N/A   Clear
12:58 PM 77.0 °F - 60.8 °F 57% 29.93 in 10.0 mi ENE 3.5 mph - N/A   Clear
1:16 PM 77.0 °F - 60.8 °F 57% 29.93 in 10.0 mi North 5.8 mph - N/A   Scattered Clouds
1:35 PM 77.0 °F - 62.6 °F 61% 29.92 in 10.0 mi Calm Calm - N/A   Scattered Clouds
1:55 PM 78.8 °F - 62.6 °F 57% 29.92 in 10.0 mi East 5.8 mph - N/A   Clear
2:19 PM 77.0 °F - 62.6 °F 61% 29.91 in 10.0 mi NNE 4.6 mph - N/A   Clear
2:37 PM 80.6 °F 81.8 °F 62.6 °F 54% 29.91 in 10.0 mi NNE 3.5 mph - N/A   Clear
2:55 PM 78.8 °F - 62.6 °F 57% 29.90 in 10.0 mi ESE 5.8 mph - N/A   Clear
2:56 PM 80.6 °F 81.8 °F 62.6 °F 54% 29.89 in 10.0 mi ESE 4.6 mph - N/A   Clear
3:15 PM 77.0 °F - 62.6 °F 61% 29.89 in 10.0 mi ENE 4.6 mph - N/A   Clear
3:35 PM 75.2 °F - 62.6 °F 65% 29.88 in 10.0 mi NE 5.8 mph - N/A   Scattered Clouds
3:58 PM 73.4 °F - 62.6 °F 69% 29.86 in 10.0 mi NE 5.8 mph - N/A Thunderstorm Mostly Cloudy
4:15 PM 73.4 °F - 62.6 °F 69% 29.87 in 10.0 mi NNE 8.1 mph - N/A Rain , Thunderstorm Thunderstorms and Rain
4:35 PM 69.8 °F - 64.4 °F 83% 29.90 in 4.0 mi NNW 3.5 mph - N/A Rain , Thunderstorm Heavy Thunderstorms and Rain
4:55 PM 69.8 °F - 66.2 °F 88% 29.91 in 7.0 mi WSW 3.5 mph - N/A Rain Rain
5:19 PM 71.6 °F - 68.0 °F 88% 29.91 in 10.0 mi Calm Calm - N/A   Light Drizzle
5:37 PM 71.6 °F - 66.2 °F 83% 29.91 in 10.0 mi East 3.5 mph - N/A   Scattered Clouds
5:55 PM 71.6 °F - 66.2 °F 83% 29.90 in 10.0 mi Calm Calm - N/A   Mostly Cloudy
5:56 PM 71.6 °F - 66.2 °F 83% 29.90 in 10.0 mi ENE 3.5 mph - N/A   Mostly Cloudy
6:15 PM 71.6 °F - 66.2 °F 83% 29.90 in 10.0 mi East 3.5 mph - N/A   Scattered Clouds
6:35 PM 71.6 °F - 66.2 °F 83% 29.91 in 10.0 mi NE 4.6 mph - N/A   Mostly Cloudy
6:58 PM 69.8 °F - 64.4 °F 83% 29.91 in 10.0 mi NE 6.9 mph - N/A Rain Rain
7:16 PM 68.0 °F - 64.4 °F 88% 29.92 in 7.0 mi NNE 6.9 mph - N/A Rain Rain
7:35 PM 66.2 °F - 64.4 °F 94% 29.92 in 10.0 mi NNE 8.1 mph - N/A Rain Rain
7:55 PM 66.2 °F - 64.4 °F 94% 29.93 in 10.0 mi North 5.8 mph - N/A Rain Light Rain
8:19 PM 66.2 °F - 64.4 °F 94% 29.93 in 10.0 mi NNE 5.8 mph - N/A   Light Drizzle
8:37 PM 66.2 °F - 64.4 °F 94% 29.94 in 10.0 mi NNE 6.9 mph - N/A Rain Rain
8:55 PM 66.2 °F - 62.6 °F 88% 29.95 in 10.0 mi NNE 6.9 mph - N/A   Drizzle
8:56 PM 66.2 °F - 62.6 °F 88% 29.95 in 10.0 mi NNE 9.2 mph - N/A   Drizzle
9:15 PM 64.4 °F - 62.6 °F 94% 29.96 in 10.0 mi NNE 9.2 mph - N/A   Light Drizzle
9:35 PM 64.4 °F - 60.8 °F 88% 29.96 in 10.0 mi NNE 6.9 mph - N/A   Overcast
9:58 PM 64.4 °F - 60.8 °F 88% 29.97 in 10.0 mi NNE 10.4 mph - N/A   Overcast
10:16 PM 64.4 °F - 60.8 °F 88% 29.98 in 10.0 mi NNE 6.9 mph - N/A Rain Light Rain
10:35 PM 62.6 °F - 60.8 °F 94% 29.98 in 7.0 mi North 9.2 mph - N/A Rain Heavy Rain
10:36 PM 62.6 °F - 60.8 °F 94% 29.98 in 7.0 mi North 9.2 mph - N/A Rain Heavy Rain
10:55 PM 62.6 °F - 60.8 °F 94% 29.98 in 10.0 mi NNE 5.8 mph - N/A Rain Light Rain
11:19 PM 62.6 °F - 60.8 °F 94% 29.98 in 10.0 mi NE 6.9 mph - N/A Rain Rain
11:37 PM 62.6 °F - 59.0 °F 88% 29.99 in 10.0 mi NNE 4.6 mph - N/A Rain Light Rain
11:55 PM 60.8 °F - 59.0 °F 94% 29.99 in 10.0 mi NNE 4.6 mph - N/A Rain Rain
11:56 PM 60.8 °F - 59.0 °F 94% 29.99 in 10.0 mi NNE 3.5 mph - N/A Rain Rain